Ardmore Downtown, OK

3:44 AM CST on November 24, 2017 (GMT -0600)
Ardmore Downtown

Weather History for K1F0 - November, 2012

Change the Weather History Date:

Friday, November 23, 2012

  Actual Average (KADM) Record (KADM)
Temperature  
Mean Temperature 52 °F -  
Max Temperature 62 °F 59 °F 80 °F (2005)
Min Temperature 41 °F 40 °F 26 °F (2007)
Degree Days  
Heating Degree Days 14    
Growing Degree Days 2 (Base 50)    
Moisture  
Dew Point 28 °F    
Average Humidity 39    
Maximum Humidity 77    
Minimum Humidity 22    
Precipitation  
Precipitation 0.00 in - - ()
Sea Level Pressure  
Sea Level Pressure 30.38 in    
Wind  
Wind Speed 12 mph (NNE)    
Max Wind Speed 25 mph    
Max Gust Speed 33 mph    
Visibility 10 miles    
Events      
Averages and records for this station are not official NWS values.
T = Trace of Precipitation, MM = Missing Value Source: NWS Daily Summary

Daily Weather History Graph

Daily Weather History Graph

Search for Another Location

Airport or City:

Trip Planner

Search our weather history database for the weather conditions in past years. The results will help you decide how hot, cold, wet, or windy it might be!

Date:

Astronomy

Nov. 23, 2012 Rise Set
Actual Time 7:09 AM CST 5:20 PM CST
Civil Twilight 6:42 AM CST 5:47 PM CST
Nautical Twilight 6:11 AM CST 6:18 PM CST
Astronomical Twilight 5:41 AM CST 6:48 PM CST
Moon 2:26 PM CST (11/23) 2:39 AM CST (11/23)
Length of Visible Light 11h 05m
Length of Day
10h 11m
Waxing Gibbous, 80% of the Moon is Illuminated
Nov 23
Waxing Gibbous
Nov 28
Full
Dec 6
Last Quarter
Dec 13
New
Dec 19
First Quarter

Hourly Weather History & Observations

Time (CST) Temp. Windchill Dew Point Humidity Pressure Visibility Wind Dir Wind Speed Gust Speed Precip Events Conditions
12:15 AM 59.0 °F - 51.8 °F 77% 30.15 in 10.0 mi NNE 12.7 mph - N/A   Mostly Cloudy
12:35 AM 62.6 °F - 51.8 °F 68% 30.16 in 10.0 mi North 3.5 mph - N/A   Mostly Cloudy
12:55 AM 60.8 °F - 51.8 °F 72% 30.15 in 10.0 mi Calm Calm - N/A   Scattered Clouds
1:15 AM 62.6 °F - 51.8 °F 68% 30.17 in 10.0 mi NNE 11.5 mph - N/A   Scattered Clouds
1:35 AM 60.8 °F - 50.0 °F 68% 30.18 in 10.0 mi NE 12.7 mph 19.6 mph N/A   Mostly Cloudy
1:55 AM 60.8 °F - 46.4 °F 59% 30.19 in 10.0 mi NE 13.8 mph - N/A   Mostly Cloudy
2:15 AM 60.8 °F - 44.6 °F 55% 30.20 in 10.0 mi NE 17.3 mph 24.2 mph N/A   Mostly Cloudy
2:35 AM 60.8 °F - 44.6 °F 55% 30.21 in 10.0 mi NE 13.8 mph 23.0 mph N/A   Mostly Cloudy
2:55 AM 60.8 °F - 44.6 °F 55% 30.22 in 10.0 mi NE 17.3 mph 21.9 mph N/A   Overcast
3:15 AM 60.8 °F - 42.8 °F 52% 30.22 in 10.0 mi NE 19.6 mph 25.3 mph N/A   Mostly Cloudy
3:35 AM 59.0 °F - 37.4 °F 45% 30.24 in 10.0 mi NE 18.4 mph 31.1 mph N/A   Scattered Clouds
3:55 AM 59.0 °F - 37.4 °F 45% 30.25 in 10.0 mi NE 20.7 mph 27.6 mph N/A   Scattered Clouds
4:15 AM 59.0 °F - 37.4 °F 45% 30.26 in 10.0 mi NE 20.7 mph 27.6 mph N/A   Mostly Cloudy
4:35 AM 57.2 °F - 37.4 °F 48% 30.27 in 10.0 mi NE 25.3 mph 33.4 mph N/A   Overcast
4:55 AM 55.4 °F - 33.8 °F 44% 30.29 in 10.0 mi NE 16.1 mph 31.1 mph N/A   Scattered Clouds
5:15 AM 55.4 °F - 35.6 °F 47% 30.30 in 10.0 mi NE 18.4 mph 32.2 mph N/A   Scattered Clouds
5:35 AM 55.4 °F - 33.8 °F 44% 30.31 in 10.0 mi NE 18.4 mph 29.9 mph N/A   Mostly Cloudy
5:55 AM 55.4 °F - 28.4 °F 36% 30.32 in 10.0 mi NE 21.9 mph 27.6 mph N/A   Overcast
6:15 AM 53.6 °F - 26.6 °F 35% 30.34 in 10.0 mi NE 16.1 mph 25.3 mph N/A   Overcast
6:35 AM 53.6 °F - 30.2 °F 41% 30.35 in 10.0 mi NE 11.5 mph 21.9 mph N/A   Mostly Cloudy
6:55 AM 53.6 °F - 30.2 °F 41% 30.36 in 10.0 mi NE 12.7 mph 21.9 mph N/A   Mostly Cloudy
7:15 AM 53.6 °F - 26.6 °F 35% 30.37 in 10.0 mi NE 11.5 mph 23.0 mph N/A   Scattered Clouds
7:35 AM 53.6 °F - 28.4 °F 38% 30.39 in 10.0 mi NE 15.0 mph 21.9 mph N/A   Scattered Clouds
7:55 AM 51.8 °F - 30.2 °F 44% 30.40 in 10.0 mi NE 10.4 mph 24.2 mph N/A   Mostly Cloudy
8:15 AM 51.8 °F - 30.2 °F 44% 30.42 in 10.0 mi NE 11.5 mph 24.2 mph N/A   Mostly Cloudy
8:35 AM 51.8 °F - 30.2 °F 44% 30.43 in 10.0 mi NE 17.3 mph 24.2 mph N/A   Scattered Clouds
8:55 AM 51.8 °F - 32.0 °F 47% 30.44 in 10.0 mi NE 10.4 mph 26.5 mph N/A   Clear
9:15 AM 53.6 °F - 32.0 °F 44% 30.44 in 10.0 mi NE 16.1 mph 23.0 mph N/A   Clear
9:35 AM 53.6 °F - 32.0 °F 44% 30.45 in 10.0 mi NE 20.7 mph 25.3 mph N/A   Clear
9:55 AM 55.4 °F - 28.4 °F 36% 30.46 in 10.0 mi NE 16.1 mph 23.0 mph N/A   Clear
10:15 AM 55.4 °F - 26.6 °F 33% 30.47 in 10.0 mi NE 17.3 mph 24.2 mph N/A   Clear
10:35 AM 55.4 °F - 24.8 °F 31% 30.47 in 10.0 mi NE 18.4 mph 29.9 mph N/A   Clear
10:55 AM 57.2 °F - 23.0 °F 27% 30.48 in 10.0 mi NE 20.7 mph 26.5 mph N/A   Clear
11:15 AM 57.2 °F - 23.0 °F 27% 30.48 in 10.0 mi NE 18.4 mph 29.9 mph N/A   Clear
11:35 AM 59.0 °F - 23.0 °F 25% 30.48 in 10.0 mi ENE 15.0 mph 24.2 mph N/A   Clear
12:15 PM 59.0 °F - 21.2 °F 23% 30.46 in 10.0 mi NE 13.8 mph 20.7 mph N/A   Clear
12:35 PM 59.0 °F - 21.2 °F 23% 30.46 in 10.0 mi NNE 11.5 mph 20.7 mph N/A   Clear
12:55 PM 59.0 °F - 19.4 °F 22% 30.45 in 10.0 mi NE 13.8 mph 20.7 mph N/A   Clear
1:15 PM 59.0 °F - 19.4 °F 22% 30.44 in 10.0 mi North 9.2 mph 20.7 mph N/A   Clear
1:35 PM 59.0 °F - 19.4 °F 22% 30.44 in 10.0 mi North 12.7 mph 19.6 mph N/A   Clear
1:55 PM 59.0 °F - 21.2 °F 23% 30.44 in 10.0 mi NNE 12.7 mph 21.9 mph N/A   Clear
2:15 PM 59.0 °F - 21.2 °F 23% 30.43 in 10.0 mi North 13.8 mph 23.0 mph N/A   Clear
2:35 PM 59.0 °F - 21.2 °F 23% 30.43 in 10.0 mi NNE 13.8 mph 18.4 mph N/A   Clear
2:55 PM 59.0 °F - 19.4 °F 22% 30.43 in 10.0 mi NNE 12.7 mph 18.4 mph N/A   Clear
3:15 PM 59.0 °F - 21.2 °F 23% 30.43 in 10.0 mi NNE 6.9 mph 18.4 mph N/A   Clear
3:35 PM 59.0 °F - 19.4 °F 22% 30.42 in 10.0 mi NNE 9.2 mph 19.6 mph N/A   Clear
3:55 PM 57.2 °F - 21.2 °F 25% 30.43 in 10.0 mi NNE 10.4 mph 16.1 mph N/A   Clear
4:15 PM 57.2 °F - 21.2 °F 25% 30.43 in 10.0 mi NNE 10.4 mph 17.3 mph N/A   Clear
4:35 PM 55.4 °F - 21.2 °F 26% 30.43 in 10.0 mi North 6.9 mph - N/A   Clear
4:55 PM 55.4 °F - 19.4 °F 25% 30.43 in 10.0 mi NNE 9.2 mph - N/A   Clear
5:15 PM 53.6 °F - 21.2 °F 28% 30.43 in 10.0 mi NNE 6.9 mph - N/A   Clear
5:35 PM 53.6 °F - 21.2 °F 28% 30.43 in 10.0 mi North 3.5 mph - N/A   Clear
5:55 PM 51.8 °F - 21.2 °F 30% 30.44 in 10.0 mi North 3.5 mph - N/A   Clear
6:15 PM 51.8 °F - 21.2 °F 30% 30.44 in 10.0 mi North 3.5 mph - N/A   Clear
6:35 PM 50.0 °F - 21.2 °F 32% 30.44 in 10.0 mi North 3.5 mph - N/A   Clear
6:55 PM 50.0 °F - 21.2 °F 32% 30.45 in 10.0 mi North 3.5 mph - N/A   Clear
7:15 PM 50.0 °F - 21.2 °F 32% 30.45 in 10.0 mi Calm Calm - N/A   Clear
7:35 PM 48.2 °F - 21.2 °F 34% 30.45 in 10.0 mi North 3.5 mph - N/A   Clear
7:55 PM 46.4 °F - 21.2 °F 37% 30.45 in 10.0 mi Calm Calm - N/A   Clear
8:15 PM 46.4 °F - 21.2 °F 37% 30.45 in 10.0 mi Calm Calm - N/A   Clear
8:35 PM 46.4 °F - 21.2 °F 37% 30.45 in 10.0 mi Calm Calm - N/A   Clear
8:55 PM 44.6 °F - 21.2 °F 39% 30.46 in 10.0 mi Calm Calm - N/A   Clear
9:15 PM 44.6 °F 43.1 °F 21.2 °F 39% 30.46 in 10.0 mi North 3.5 mph - N/A   Clear
9:35 PM 42.8 °F - 21.2 °F 42% 30.47 in 10.0 mi Calm Calm - N/A   Clear
9:55 PM 41.0 °F - 23.0 °F 49% 30.47 in 10.0 mi Calm Calm - N/A   Clear
10:15 PM 41.0 °F - 21.2 °F 45% 30.47 in 10.0 mi Calm Calm - N/A   Clear
10:55 PM 42.8 °F 41.1 °F 19.4 °F 39% 30.46 in 10.0 mi North 3.5 mph - N/A   Clear
11:15 PM 41.0 °F 39.0 °F 19.4 °F 42% 30.46 in 10.0 mi North 3.5 mph - N/A   Clear
11:35 PM 41.0 °F - 19.4 °F 42% 30.46 in 10.0 mi Calm Calm - N/A   Clear